Time,TemperatureF,DewpointF,PressureIn,WindDirection,WindDirectionDegrees,WindSpeedMPH,WindSpeedGustMPH,Humidity,HourlyPrecipIn,Conditions,Clouds,dailyrainin,SoftwareType,DateUTC
2013-01-04 00:03:00,40.0,-99.9,30.24,North,-999,-999.0,-999.0,-999,-99.99,,,-99.99,,2013-01-04 05:03:00,
2013-01-04 00:12:00,40.0,-99.9,30.24,NNW,344,5.0,11.0,-999,-99.99,,,-99.99,,2013-01-04 05:12:00,
2013-01-04 00:22:00,-999.0,-99.9,30.24,North,351,7.0,9.0,-999,-99.99,,,-99.99,,2013-01-04 05:22:00,
2013-01-04 00:33:00,-999.0,-99.9,30.24,NNW,348,6.0,8.0,-999,-99.99,,,-99.99,,2013-01-04 05:33:00,
2013-01-04 00:43:00,40.0,-99.9,30.24,North,-999,-999.0,-999.0,-999,-99.99,,,-99.99,,2013-01-04 05:43:00,
2013-01-04 00:53:00,-999.0,-99.9,30.24,NNW,343,5.0,7.0,-999,-99.99,,,-99.99,,2013-01-04 05:53:00,
2013-01-04 01:02:00,39.0,-99.9,30.24,North,-999,-999.0,-999.0,-999,-99.99,,,-99.99,,2013-01-04 06:02:00,
2013-01-04 01:12:00,-999.0,-99.9,30.24,NNW,342,4.0,6.0,-999,-99.99,,,-99.99,,2013-01-04 06:12:00,
2013-01-04 01:22:00,-999.0,-99.9,30.24,NNW,336,3.0,5.0,-999,-99.99,,,-99.99,,2013-01-04 06:22:00,
2013-01-04 01:33:00,39.0,-99.9,30.24,North,-999,-999.0,-999.0,-999,-99.99,,,-99.99,,2013-01-04 06:33:00,
2013-01-04 01:43:00,-999.0,-99.9,30.24,NNW,341,5.0,6.0,-999,-99.99,,,-99.99,,2013-01-04 06:43:00,
2013-01-04 01:53:00,-999.0,-99.9,30.24,NNW,337,4.0,7.0,-999,-99.99,,,-99.99,,2013-01-04 06:53:00,
2013-01-04 02:02:00,-999.0,-99.9,30.24,NNW,347,7.0,9.0,-999,-99.99,,,-99.99,,2013-01-04 07:02:00,
2013-01-04 02:12:00,39.0,-99.9,30.24,NNW,345,6.0,8.0,-999,-99.99,,,-99.99,,2013-01-04 07:12:00,
2013-01-04 02:22:00,38.0,-99.9,30.24,North,-999,-999.0,-999.0,-999,-99.99,,,-99.99,,2013-01-04 07:22:00,
2013-01-04 02:32:00,-999.0,-99.9,30.24,NNW,342,5.0,9.0,-999,-99.99,,,-99.99,,2013-01-04 07:32:00,
2013-01-04 02:52:00,38.0,-99.9,30.24,North,-999,-999.0,-999.0,-999,-99.99,,,-99.99,,2013-01-04 07:52:00,
2013-01-04 03:03:00,38.0,-99.9,30.24,North,-999,-999.0,-999.0,-999,-99.99,,,-99.99,,2013-01-04 08:03:00,
2013-01-04 03:12:00,38.0,-99.9,30.24,North,349,7.0,8.0,-999,-99.99,,,-99.99,,2013-01-04 08:12:00,
2013-01-04 03:23:00,-999.0,-99.9,30.24,NNW,344,6.0,8.0,-999,-99.99,,,-99.99,,2013-01-04 08:23:00,
2013-01-04 03:33:00,-999.0,-99.9,30.25,NNW,342,4.0,7.0,-999,-99.99,,,-99.99,,2013-01-04 08:33:00,
2013-01-04 03:53:00,37.0,-99.9,30.25,North,-999,-999.0,-999.0,-999,-99.99,,,-99.99,,2013-01-04 08:53:00,
2013-01-04 04:02:00,-999.0,-99.9,30.25,NW,322,4.0,7.0,-999,-99.99,,,-99.99,,2013-01-04 09:02:00,